Zurück zum Katalog

COSMOS 839 DEB

AktivUNKNOWN
NORAD 10438·DEBRIS·🇷🇺 Russia

Gestartet Jul 8, 1976 von Plesetsk Cosmodrome

Loading…

Nächste Überflüge (nächste 24 Stunden)

TLE

AktuellSource: Space-Track

Epoche: Sep 13, 2026, 12:17 UTC

1 10438U 76067P   26256.51204330 -.00000385  00000-0 -19455-2 0  9995
2 10438  65.9607  48.2262 0646188 349.6954  67.6689 12.09756425214323

Verfolge COSMOS 839 DEB in Echtzeit mit AllMySat

Download on the App Store